| time (UTC) | temp C | wind direction | speed KPH | gust KPH | rain 1hr cm | rain 24hr cm | rain mn cm | humidity % | barometer mb |
| 20260504011517 | 17 | 289 | 1.6 | 4.8 | 0.00 | 0.00 | 0.00 | 37 | 1004.8 |
| 20260504010015 | 18 | 248 | 1.6 | 9.7 | 0.00 | 0.00 | 0.00 | 36 | 1004.6 |
| 20260504004515 | 18 | 305 | 0.0 | 4.8 | 0.00 | 0.00 | 0.00 | 36 | 1004.5 |
| 20260504003018 | 18 | 327 | 3.2 | 9.7 | 0.00 | 0.00 | 0.00 | 36 | 1004.3 |
| 20260504001519 | 19 | 298 | 0.0 | 6.4 | 0.00 | 0.00 | 0.00 | 34 | 1004.3 |
| 20260504000018 | 20 | 261 | 4.8 | 14.5 | 0.00 | 0.00 | 0.00 | 33 | 1004.2 |
| 20260503234516 | 20 | 272 | 3.2 | 16.1 | 0.00 | 0.00 | 0.00 | 33 | 1004.0 |
| 20260503233012 | 20 | 262 | 1.6 | 9.7 | 0.00 | 0.00 | 0.00 | 33 | 1004.0 |
| 20260503231522 | 20 | 309 | 3.2 | 12.9 | 0.00 | 0.00 | 0.00 | 34 | 1004.1 |
| 20260503230020 | 21 | 240 | 3.2 | 16.1 | 0.00 | 0.00 | 0.00 | 34 | 1004.3 |
| 20260503224517 | 20 | 271 | 8.0 | 19.3 | 0.00 | 0.00 | 0.00 | 1004.4 | |
| 20260503223022 | 20 | 279 | 4.8 | 17.7 | 0.00 | 0.00 | 0.00 | 36 | 1004.3 |
| 20260503221520 | 20 | 253 | 4.8 | 24.1 | 0.00 | 0.00 | 0.00 | 36 | 1004.4 |
| 20260503220021 | 20 | 288 | 6.4 | 20.9 | 0.00 | 0.00 | 0.00 | 37 | 1004.4 |
| 20260503214519 | 20 | 9 | 8.0 | 20.9 | 0.00 | 0.00 | 0.00 | 37 | 1004.4 |
| 20260503213020 | 20 | 254 | 9.7 | 22.5 | 0.00 | 0.00 | 0.00 | 40 | 1004.4 |
| 20260503211532 | 19 | 248 | 8.0 | 24.1 | 0.00 | 0.00 | 0.00 | 41 | 1004.6 |
| 20260503210020 | 18 | 215 | 9.7 | 25.7 | 0.00 | 0.00 | 0.00 | 42 | 1004.7 |
| 20260503204520 | 18 | 247 | 12.9 | 25.7 | 0.00 | 0.00 | 0.00 | 42 | 1004.9 |
| 20260503203022 | 18 | 250 | 8.0 | 29.0 | 0.00 | 0.00 | 0.00 | 43 | 1005.0 |
| 20260503201524 | 17 | 153 | 12.9 | 29.0 | 0.00 | 0.00 | 0.00 | 43 | 1005.2 |
| 20260503200019 | 17 | 246 | 11.3 | 24.1 | 0.00 | 0.00 | 0.00 | 44 | 1005.3 |
| 20260503194525 | 17 | 215 | 14.5 | 30.6 | 0.00 | 0.00 | 0.00 | 45 | 1005.6 |
| 20260503193025 | 16 | 201 | 12.9 | 30.6 | 0.00 | 0.00 | 0.00 | 45 | 1005.8 |
| 20260503191524 | 16 | 216 | 17.7 | 27.4 | 0.00 | 0.00 | 0.00 | 46 | 1006.1 |
| 20260503190040 | 17 | 218 | 11.3 | 30.6 | 0.00 | 0.00 | 0.00 | 44 | 1006.0 |
| 20260503184521 | 16 | 280 | 9.7 | 25.7 | 0.00 | 0.00 | 0.00 | 45 | 1006.1 |
| 20260503183011 | 16 | 239 | 12.9 | 30.6 | 0.00 | 0.00 | 0.00 | 47 | 1006.2 |
| 20260503181508 | 15 | 224 | 11.3 | 32.2 | 0.00 | 0.00 | 0.00 | 47 | 1006.4 |
| 20260503180022 | 15 | 201 | 11.3 | 38.6 | 0.00 | 0.00 | 0.00 | 47 | 1006.5 |
| 20260503174517 | 15 | 215 | 14.5 | 49.9 | 0.00 | 0.00 | 0.00 | 48 | 1006.5 |
| 20260503173025 | 15 | 242 | 12.9 | 30.6 | 0.00 | 0.00 | 0.00 | 48 | 1006.9 |
| 20260503171511 | 15 | 236 | 12.9 | 32.2 | 0.00 | 0.00 | 0.00 | 48 | 1006.8 |
| 20260503081537 | 7 | 225 | 8.0 | 20.9 | 0.00 | 0.00 | 0.00 | 51 | 1011.4 |
| 20260503071528 | 7 | 191 | 8.0 | 16.1 | 0.00 | 0.00 | 0.00 | 52 | 1011.7 |
| 20260503054537 | 7 | 202 | 8.0 | 16.1 | 0.00 | 0.00 | 0.00 | 50 | 1012.3 |
| 20260503053028 | 7 | 211 | 8.0 | 19.3 | 0.00 | 0.00 | 0.00 | 49 | 1012.5 |
| 20260503051520 | 7 | 192 | 4.8 | 14.5 | 0.00 | 0.00 | 0.00 | 48 | 1012.7 |
| 20260503050023 | 7 | 202 | 6.4 | 12.9 | 0.00 | 0.00 | 0.00 | 48 | 1012.7 |
| 20260503044526 | 7 | 189 | 6.4 | 12.9 | 0.00 | 0.00 | 0.00 | 47 | 1012.9 |
| 20260503043028 | 7 | 215 | 4.8 | 14.5 | 0.00 | 0.00 | 0.00 | 46 | 1013.0 |
| 20260503041526 | 8 | 179 | 4.8 | 14.5 | 0.00 | 0.00 | 0.00 | 45 | 1013.2 |
| 20260503040027 | 8 | 202 | 4.8 | 11.3 | 0.00 | 0.00 | 0.00 | 44 | 1013.4 |
| 20260503034506 | 8 | 219 | 4.8 | 14.5 | 0.00 | 0.00 | 0.00 | 43 | 1013.5 |
| 20260503033020 | 8 | 213 | 4.8 | 12.9 | 0.00 | 0.00 | 0.00 | 43 | 1013.6 |
| 20260503031516 | 8 | 250 | 4.8 | 8.0 | 0.00 | 0.00 | 0.00 | 41 | 1013.7 |
| 20260503030023 | 9 | 229 | 4.8 | 9.7 | 0.00 | 0.00 | 0.00 | 41 | 1013.8 |
| 20260503024524 | 9 | 215 | 3.2 | 8.0 | 0.00 | 0.00 | 0.00 | 40 | 1013.9 |
| 20260503023012 | 10 | 190 | 3.2 | 9.7 | 0.00 | 0.00 | 0.00 | 39 | 1013.9 |
| 20260503021515 | 10 | 193 | 6.4 | 11.3 | 0.00 | 0.00 | 0.00 | 38 | 1013.9 |
| 20260503020019 | 10 | 214 | 3.2 | 8.0 | 0.00 | 0.00 | 0.00 | 38 | 1013.8 |
| 20260503014535 | 10 | 213 | 1.6 | 6.4 | 0.00 | 0.00 | 0.00 | 38 | 1013.7 |
| 20260503013033 | 10 | 196 | 3.2 | 9.7 | 0.00 | 0.00 | 0.00 | 37 | 1013.6 |